Theta_e
291 291 291 291 290 290 289 289 288 288 288 287 287 287 286 286 286 286 286 285 285 284 283 282 281 281 281 281 281 281 281 281 281 282 282 282 282 282 282 282 282 282
291 291 291 290 290 289 289 289 288 288 288 287 286 286 286 285 285 285 285 285 284 283 282 281 281 281 281 281 281 281 281 281 281 281 281 281 281 281 281 282 282 282
291 290 290 290 290 289 289 288 288 288 287 286 286 286 285 285 285 285 285 284 284 283 282 281 281 281 281 280 280 280 280 280 280 280 280 280 281 281 281 281 281 281
290 290 290 290 289 289 288 288 287 287 287 286 285 285 285 285 285 285 285 284 284 283 282 281 281 281 280 280 280 280 280 280 280 280 280 280 280 280 280 280 280 280
289 289 289 289 289 288 288 287 287 286 286 286 285 285 285 286 286 285 285 284 283 282 281 281 281 280 280 280 279 279 279 279 279 279 279 279 279 279 279 279 279 279
289 289 288 288 288 288 287 287 287 286 286 285 285 285 285 286 286 285 284 283 282 282 281 281 280 280 279 279 279 279 279 279 279 278 278 279 279 279 278 278 278 278
288 288 288 287 287 287 287 286 286 286 286 285 285 285 286 286 285 285 284 282 281 281 281 280 280 279 279 279 278 278 278 278 278 278 278 278 278 277 277 277 277 277
288 287 287 286 286 286 286 286 285 285 285 285 285 285 286 286 285 284 282 281 281 281 280 280 279 279 278 278 278 277 277 277 277 277 277 277 276 276 276 276 275 275
287 287 286 286 285 285 285 285 284 284 284 284 285 285 285 285 284 282 281 281 280 280 280 279 279 278 278 277 277 277 277 276 276 276 276 275 275 275 275 274 274 274
287 286 285 285 284 284 284 284 284 284 284 284 285 285 284 283 282 281 280 280 280 279 279 278 278 278 277 277 276 276 276 276 275 275 275 274 274 274 273 273 273 273
286 285 284 284 284 283 283 283 283 283 284 284 284 284 283 282 280 280 280 279 279 279 278 278 277 277 276 276 276 275 275 274 274 274 273 273 273 272 272 272 272 272
285 284 284 283 283 283 283 283 283 283 283 284 284 283 281 280 280 279 279 279 279 278 278 277 276 276 276 276 275 275 274 274 273 273 272 272 272 272 272 271 271 271
285 284 283 283 283 282 282 282 282 283 283 283 282 281 280 279 279 279 279 278 278 277 277 276 275 275 275 275 274 274 273 273 272 272 272 271 271 271 271 271 271 271
284 283 283 282 282 282 282 282 282 282 283 282 281 280 279 279 279 278 278 277 277 276 276 275 275 275 275 274 273 273 272 272 272 271 271 271 271 272 272 272 272 272
284 283 282 282 281 281 281 281 282 282 281 281 280 279 279 278 278 278 277 276 276 276 275 274 274 275 275 274 273 272 272 272 271 271 272 272 272 272 272 273 273 273
283 282 282 281 281 281 281 281 281 281 280 280 279 279 278 278 277 277 276 276 275 275 274 274 274 275 274 273 273 273 273 272 272 272 272 273 273 273 273 273 273 273
283 282 281 281 281 280 280 280 280 280 280 279 278 278 278 277 277 276 276 276 275 274 274 274 274 274 273 273 273 274 274 274 273 273 273 273 274 274 274 274 274 274
282 282 281 281 280 280 280 280 280 279 279 278 277 277 277 276 276 276 276 275 275 274 273 274 274 274 273 273 274 274 275 275 274 274 274 274 274 274 274 274 274 274
282 281 281 280 280 280 280 280 279 279 278 277 276 276 276 275 275 275 275 274 273 273 273 274 274 274 272 273 274 274 275 275 275 275 275 274 274 274 274 274 274 273
281 281 280 280 279 279 279 279 278 277 276 276 275 275 275 274 274 274 274 273 272 272 273 274 274 273 272 272 273 274 274 275 275 275 275 274 274 273 273 273 273 273
281 280 279 279 278 278 278 277 277 276 275 275 275 275 275 274 274 274 274 273 273 273 273 274 274 272 272 272 273 274 274 275 275 274 274 273 273 273 273 273 273 273
280 279 278 278 277 277 276 275 275 274 274 274 274 274 274 274 274 274 274 274 274 273 273 274 274 272 271 272 273 273 274 274 274 273 273 273 273 273 273 273 273 274
280 279 277 277 276 276 275 274 274 274 274 274 274 273 273 273 274 274 274 274 273 272 272 273 273 272 271 271 272 273 274 274 274 273 273 273 273 273 273 274 274 274
279 278 277 276 276 275 275 274 274 274 274 274 274 274 274 274 274 274 273 273 273 272 272 272 272 271 271 271 272 273 274 274 274 274 274 274 274 274 274 274 275 275
278 278 277 276 275 275 275 275 274 274 274 274 274 274 274 274 274 274 273 272 272 271 270 270 270 271 271 271 272 273 274 274 274 274 274 274 274 274 275 275 275 275
278 277 277 276 275 275 275 275 275 274 273 273 273 274 274 273 273 272 272 271 271 270 270 269 270 270 270 271 272 273 274 274 274 274 274 274 274 275 275 276 275 275
Wind_Speed
39 38 38 37 36 35 34 33 31 30 28 26 25 23 20 18 16 16 16 16 16 16 16 15 14 13 13 13 13 13 13 14 15 15 15 16 17 18 20 21 22 23
40 39 38 38 37 35 34 33 32 30 29 27 25 23 22 20 19 19 18 18 18 17 16 15 14 13 12 12 12 12 13 15 16 15 15 17 18 19 21 22 23 24
41 41 40 39 39 37 35 33 31 30 29 27 26 25 23 22 21 20 19 18 18 17 15 14 14 13 12 12 12 13 14 16 16 15 16 17 18 20 21 23 24 25
42 42 42 40 40 38 36 34 32 30 29 28 27 25 24 22 21 20 19 18 18 17 16 15 14 13 12 12 12 14 15 16 16 15 16 18 19 21 22 23 24 25
42 42 41 40 39 38 37 36 34 32 31 29 28 26 24 23 22 21 20 19 18 17 16 15 14 13 12 12 13 14 14 15 15 15 16 19 19 21 22 23 23 25
41 41 40 40 39 38 38 37 36 34 33 30 28 26 25 23 22 21 20 19 18 17 16 15 14 13 13 13 13 13 14 15 16 16 17 19 21 22 23 23 24 25
41 40 40 39 38 38 38 37 36 35 33 31 29 27 25 24 22 22 20 19 18 17 16 15 14 14 13 13 13 14 15 16 17 17 18 20 22 24 24 23 24 25
41 40 39 39 38 38 38 37 36 34 33 31 29 27 25 24 23 22 20 19 19 18 17 16 15 14 14 13 14 15 16 17 17 17 19 21 22 23 24 23 23 25
40 40 39 39 39 38 38 37 36 34 33 31 29 28 26 24 23 22 21 20 19 18 18 17 16 15 14 14 14 15 16 17 17 18 19 21 22 23 24 23 24 26
40 40 39 40 39 39 38 37 36 35 33 31 30 28 26 25 24 22 22 21 20 19 18 17 16 15 14 14 15 16 17 17 17 18 20 21 22 23 24 23 24 26
40 39 40 40 40 39 38 37 36 35 33 31 29 27 26 25 23 23 22 21 20 19 18 16 16 15 14 15 15 16 16 17 17 18 20 21 22 23 23 24 25 26
39 40 41 41 40 39 38 37 35 34 33 30 28 26 25 24 23 22 22 21 20 19 17 16 16 16 16 15 15 15 15 16 17 18 19 21 21 22 23 24 25 25
40 40 40 39 38 37 37 36 35 34 32 29 27 26 24 23 23 22 21 20 19 18 17 17 17 16 16 14 13 14 14 15 16 17 19 20 20 22 22 23 25 25
38 37 37 36 35 35 35 34 34 33 31 28 26 25 24 23 22 21 21 19 18 18 17 17 17 15 14 13 13 13 13 14 15 16 18 19 20 21 22 23 25 26
35 34 34 34 33 33 34 34 33 32 29 27 26 25 24 23 22 21 20 19 18 17 17 17 16 15 14 13 12 12 12 12 14 16 18 19 19 20 21 22 22 23
33 33 33 34 33 33 34 33 33 31 29 28 26 26 25 23 22 21 19 18 18 17 17 16 14 14 12 11 11 11 11 12 14 16 17 18 20 21 22 22 21 21
33 33 34 34 34 34 34 34 33 31 30 28 27 26 24 23 22 20 19 19 18 16 16 14 13 12 10 10 11 12 12 14 14 16 18 18 20 21 22 22 21 21
35 35 35 35 35 35 36 35 34 32 31 29 28 26 24 23 21 20 19 17 16 15 14 12 12 11 10 11 12 12 13 15 16 17 19 20 20 21 21 20 21 23
37 37 37 37 37 38 37 36 35 33 31 29 27 25 23 21 20 18 17 15 14 13 12 11 11 11 10 11 12 13 13 14 17 18 19 21 20 20 21 21 23 26
38 38 38 38 38 39 38 37 35 32 30 28 26 24 22 20 18 17 15 14 14 13 12 11 11 11 11 11 12 12 13 15 17 18 19 19 19 19 21 23 26 28
38 38 38 38 38 39 38 37 35 33 31 28 26 24 22 21 19 17 16 15 14 13 12 11 12 11 10 10 12 12 13 15 16 17 17 19 19 20 22 24 26 28
39 39 39 39 39 39 37 35 34 32 30 28 26 23 21 19 18 17 16 15 13 13 13 12 12 10 9 9 11 12 13 14 15 17 18 20 21 21 23 25 26 29
41 41 40 40 40 39 37 34 33 31 29 27 25 23 21 20 19 17 15 14 13 13 13 12 11 9 7 8 10 11 12 13 15 17 19 21 22 22 24 27 27 28
44 45 44 43 43 42 40 37 34 32 29 27 26 24 23 21 19 16 15 14 13 12 12 11 11 7 6 7 9 10 11 13 15 18 19 21 22 23 24 26 27 27
45 46 46 45 45 44 41 38 35 32 30 27 25 24 22 19 17 16 15 14 12 11 11 11 10 6 4 7 9 9 10 13 15 18 19 21 23 23 23 24 25 25
44 45 45 44 45 43 40 38 36 33 30 28 25 23 20 18 17 15 14 12 11 10 10 10 9 5 3 6 8 9 10 12 14 17 20 22 22 22 22 23 23 23
Wind_Direction
202 201 201 201 201 201 201 200 198 197 197 198 199 201 203 204 208 215 222 230 237 241 246 249 251 254 257 259 262 264 263 263 265 267 267 267 269 269 270 272 272 271
202 202 202 202 201 201 201 201 200 199 198 199 200 199 199 201 206 213 220 227 234 240 245 249 252 255 257 259 261 261 262 264 267 270 270 270 271 272 272 272 271 271
201 201 201 202 201 200 199 199 199 201 201 199 200 200 200 203 208 214 221 227 234 240 245 249 252 254 255 257 259 260 262 265 270 273 272 272 273 273 274 274 272 271
201 201 202 202 202 201 199 197 197 199 200 201 201 202 204 207 211 216 223 229 235 240 244 248 251 253 255 256 258 261 264 267 272 274 273 274 276 277 277 276 274 273
202 201 202 201 201 200 199 198 198 198 200 202 202 204 207 210 215 220 225 230 234 238 242 246 250 253 254 257 260 264 268 271 274 274 273 275 276 276 275 275 274 274
202 202 201 200 199 199 199 199 200 200 201 202 203 206 209 213 218 222 226 229 231 236 240 244 248 251 254 259 264 267 269 271 271 270 269 271 272 272 272 273 275 276
201 201 200 199 198 198 199 199 200 201 201 202 203 206 209 213 219 223 225 227 229 233 239 243 245 248 253 258 260 262 264 266 267 267 268 270 273 274 274 275 275 276
199 199 198 197 196 196 197 198 198 199 199 200 201 205 209 214 219 222 223 225 228 233 237 240 244 247 250 253 254 257 261 263 266 268 270 272 274 275 275 277 278 278
197 197 196 195 194 194 195 196 196 197 197 198 200 203 209 215 218 220 222 225 229 233 235 238 242 245 248 250 253 256 260 263 266 267 269 272 273 274 276 278 279 279
195 195 194 194 193 193 193 194 195 195 196 198 200 203 208 212 216 218 221 225 229 231 233 237 241 244 247 249 251 255 260 264 266 268 269 271 272 274 277 278 278 277
194 193 194 194 193 193 192 192 193 193 194 197 199 203 207 210 213 216 220 225 228 230 234 237 240 242 244 246 250 254 259 263 267 270 271 271 272 274 276 277 276 276
192 193 194 194 193 192 190 190 190 191 193 196 200 202 204 208 212 216 220 224 227 231 234 236 238 239 241 245 250 253 257 262 266 270 271 271 273 275 277 276 274 274
193 194 194 193 192 190 187 187 187 189 192 194 199 202 203 207 211 215 221 223 226 230 233 235 236 238 243 247 250 254 257 262 266 269 270 272 274 276 277 276 275 275
193 193 193 191 189 186 184 184 184 187 190 193 197 200 203 208 211 214 218 221 227 231 232 235 237 240 245 247 249 253 256 261 265 266 268 273 275 274 274 274 275 276
191 190 190 188 186 183 181 181 182 185 188 191 195 198 202 206 210 213 217 221 227 231 232 235 238 243 247 248 251 254 255 260 264 266 271 274 272 270 271 272 273 274
188 187 185 184 182 180 179 179 181 183 186 190 193 197 200 203 207 212 216 220 225 229 233 236 240 247 251 251 251 253 259 264 267 270 271 272 271 272 275 276 275 274
185 183 182 181 179 178 177 178 180 182 186 189 192 195 199 202 207 211 214 220 224 227 231 236 244 253 257 253 246 245 255 262 265 269 269 269 272 275 278 279 279 278
183 180 179 178 177 176 177 178 180 182 185 189 192 194 197 201 206 209 212 218 221 223 228 236 248 258 258 253 250 249 254 260 264 268 270 273 276 278 278 281 283 283
181 178 177 177 177 177 178 179 180 182 184 188 189 191 195 199 203 207 210 212 214 219 228 240 252 260 257 252 255 259 258 262 268 271 274 278 280 281 280 282 284 286
180 178 176 176 177 177 178 179 179 180 182 185 186 188 192 196 199 203 204 206 211 219 230 243 253 258 257 254 256 261 264 268 272 276 280 282 282 282 282 284 286 285
179 178 176 175 176 177 177 177 178 179 180 182 185 188 191 194 197 199 201 206 212 220 230 242 252 254 252 253 258 264 268 272 277 281 284 283 283 283 284 286 288 286
179 177 176 175 176 176 175 175 176 176 178 179 181 184 187 190 193 197 202 207 210 219 229 239 249 253 247 248 258 266 271 276 282 286 287 285 285 287 289 290 289 288
179 177 175 174 175 175 174 174 175 175 176 178 177 179 182 187 192 196 200 205 209 217 228 240 251 252 240 242 257 266 274 282 287 289 288 288 288 290 293 294 292 292
181 178 176 175 176 177 175 175 175 175 176 179 179 180 183 186 190 193 198 205 212 218 227 242 252 245 226 242 259 266 275 284 289 290 289 289 292 294 295 297 298 299
181 180 178 177 177 177 176 174 174 174 175 177 179 180 181 184 187 192 197 204 214 223 228 236 244 241 223 243 259 268 277 284 289 291 290 291 295 297 298 301 303 304
180 180 179 177 176 176 175 174 173 172 172 174 175 177 178 181 185 190 197 206 215 223 222 223 233 241 237 249 261 272 278 284 291 292 292 294 297 301 305 308 308 307